Weather in Nefedovo

Russia / Vologda Oblast     59°45′54″N   39°04′03″E
temp.,
°C
wind,
m/s
gust,
m/s
humid.,
%
clouds,
%
prec.,
mm/h
press.,
hPa
HPBL,
m
9 march, tue
tue900:00−20n379897 0.0 1012251
03:00−23n369888 0.0 1015167
06:00−26n379878 0.0 1016186
09:00−25n369371 0.0 1018276
12:00−21n359077 0.0 1019400
15:00−19n368888 0.0 1020504
18:00−21n3794100 0.0 1022255
21:00−24n379886 0.0 1024158
10 march, wed
wed1000:00−26n24999 0.0 102686
03:00−27n22995 0.0 102739
06:00−28nnw23980 0.0 102757
09:00−23wnw24910 0.0 1028141
12:00−17wnw368792 0.0 1027365
15:00−15wnw358896 0.1 1027523
18:00−17wnw2397100 0.1 102776
21:00−20wnw2310095 0.1 102864
11 march, thu
thu1100:00−21nw2310069 0.0 102940
03:00−21wnw239962 0.0 103032
06:00−21wnw239959 0.0 103054
09:00−18wnw249461 0.0 1030162
12:00−11w248754 0.0 1029316
15:00−8wsw358526 0.0 1028512
18:00−12sw269691 0.0 1027119
21:00−15sw389772 0.0 1027168
12 march, fri
fri1200:00−16sw399565 0.0 1026246
03:00−18sw4108933 0.0 1025254
06:00−19ssw310910 0.0 1024244
09:00−16ssw410850 0.0 1023272
12:00−10ssw48810 0.0 1022357
15:00−8s510780 0.0 1020448
18:00−11s413830 0.0 1019471
21:00−11s515880 0.0 1018539
13 march, sat
sat1300:00−11s5148969 0.0 1017605
03:00−12s5148984 0.0 1016593
06:00−11s51388100 0.1 1015710
09:00−9s61287100 0.1 1014733
12:00−7s61185100 0.1 1014786
15:00−6s51089100 0.3 1013864
18:00−6s41092100 0.4 1012741
21:00−6s41094100 0.6 1011517